Hartford, CT

7:41 PM EDT on May 23, 2017 (GMT -0400)
Hartford-brainard

Weather History for KHFD - November, 2012

Change the Weather History Date:

Wednesday, November 28, 2012

  Actual Average Record
Temperature  
Mean Temperature 35 °F -  
Max Temperature 42 °F 47 °F 64 °F (2003)
Min Temperature 28 °F 30 °F 13 °F (1932)
Degree Days  
Heating Degree Days 30    
Moisture  
Dew Point 26 °F    
Average Humidity 73    
Maximum Humidity 89    
Minimum Humidity 45    
Precipitation  
Precipitation 0.00 in - - ()
Sea Level Pressure  
Sea Level Pressure 30.20 in    
Wind  
Wind Speed 6 mph (NNW)    
Max Wind Speed 12 mph    
Max Gust Speed -    
Visibility 8 miles    
Events      
Averages and records for this station are not official NWS values.
T = Trace of Precipitation, MM = Missing Value Source: NWS Daily Summary

Daily Weather History Graph

Daily Weather History Graph

Search for Another Location

Airport or City:

Trip Planner

Search our weather history database for the weather conditions in past years. The results will help you decide how hot, cold, wet, or windy it might be!

Date:

Astronomy

Nov. 28, 2012 Rise Set
Actual Time 6:55 AM EST 4:21 PM EST
Civil Twilight 6:24 AM EST 4:52 PM EST
Nautical Twilight 5:50 AM EST 5:26 PM EST
Astronomical Twilight 5:16 AM EST 6:00 PM EST
Moon 4:34 PM EST (11/28) 6:50 AM EST (11/28)
Length of Visible Light 10h 27m
Length of Day
9h 26m
Full, 100% of the Moon is Illuminated
Nov 28
Full
Dec 6
Last Quarter
Dec 13
New
Dec 20
First Quarter
Dec 28
Full

Hourly Weather History & Observations

Time (EST) Temp. Windchill Dew Point Humidity Pressure Visibility Wind Dir Wind Speed Gust Speed Precip Events Conditions
12:06 AM 33.8 °F 28.6 °F 30.2 °F 87% 30.22 in 4.0 mi NNE 5.8 mph - N/A   Overcast
12:26 AM 33.8 °F 28.6 °F 30.2 °F 87% 30.21 in 4.0 mi North 5.8 mph - N/A   Overcast
12:53 AM 34.0 °F 28.8 °F 30.9 °F 89% 30.20 in 5.0 mi NNE 5.8 mph - N/A   Overcast
1:40 AM 35.6 °F 31.7 °F 30.2 °F 81% 30.21 in 6.0 mi North 4.6 mph - N/A   Overcast
1:53 AM 35.1 °F 30.1 °F 30.9 °F 85% 30.21 in 6.0 mi North 5.8 mph - N/A   Overcast
2:53 AM 34.0 °F 28.8 °F 30.9 °F 89% 30.19 in 6.0 mi NNE 5.8 mph - N/A   Overcast
3:45 AM 33.8 °F - 30.2 °F 87% 30.19 in 4.0 mi Calm Calm - N/A   Overcast
3:53 AM 34.0 °F 28.8 °F 30.9 °F 89% 30.20 in 4.0 mi NNW 5.8 mph - N/A   Overcast
4:53 AM 34.0 °F 26.6 °F 30.0 °F 85% 30.21 in 6.0 mi North 9.2 mph - N/A   Overcast
5:00 AM 33.8 °F 26.4 °F 30.2 °F 87% 30.21 in 7.0 mi North 9.2 mph - N/A   Overcast
5:25 AM 33.8 °F 28.6 °F 30.2 °F 87% 30.21 in 7.0 mi North 5.8 mph - N/A   Overcast
5:40 AM 33.8 °F 27.0 °F 30.2 °F 87% 30.21 in 6.0 mi North 8.1 mph - N/A   Overcast
5:53 AM 34.0 °F 28.8 °F 30.0 °F 85% 30.21 in 7.0 mi North 5.8 mph - N/A   Overcast
6:53 AM 33.1 °F 27.7 °F 28.9 °F 85% 30.21 in 7.0 mi NNE 5.8 mph - N/A   Mostly Cloudy
7:45 AM 32.0 °F 27.5 °F 28.4 °F 87% 30.22 in 6.0 mi NNE 4.6 mph - N/A   Mostly Cloudy
7:53 AM 33.1 °F 27.7 °F 28.9 °F 85% 30.22 in 6.0 mi NNE 5.8 mph - N/A   Mostly Cloudy
8:53 AM 33.1 °F 26.9 °F 28.0 °F 82% 30.22 in 8.0 mi NNE 6.9 mph - N/A   Overcast
9:25 AM 35.6 °F 29.9 °F 28.4 °F 75% 30.22 in 9.0 mi NNE 6.9 mph - N/A   Scattered Clouds
9:53 AM 36.0 °F 32.1 °F 28.0 °F 73% 30.22 in 10.0 mi NE 4.6 mph - N/A   Clear
10:53 AM 39.0 °F 34.0 °F 27.0 °F 62% 30.20 in 10.0 mi North 6.9 mph - N/A   Clear
11:53 AM 39.0 °F 35.7 °F 25.0 °F 57% 30.18 in 10.0 mi NNW 4.6 mph - N/A   Partly Cloudy
12:53 PM 39.9 °F 35.1 °F 21.9 °F 49% 30.16 in 10.0 mi West 6.9 mph - N/A   Overcast
1:53 PM 42.1 °F 36.6 °F 21.9 °F 45% 30.14 in 10.0 mi NW 9.2 mph - N/A   Overcast
2:53 PM 39.0 °F 31.8 °F 21.0 °F 49% 30.15 in 10.0 mi NW 11.5 mph - N/A   Overcast
3:53 PM 39.0 °F 32.8 °F 19.0 °F 45% 30.15 in 10.0 mi West 9.2 mph - N/A   Overcast
4:53 PM 37.9 °F 32.7 °F 19.9 °F 48% 30.17 in 10.0 mi West 6.9 mph - N/A   Mostly Cloudy
5:53 PM 37.0 °F 33.3 °F 21.0 °F 52% 30.19 in 10.0 mi West 4.6 mph - N/A   Scattered Clouds
6:53 PM 36.0 °F 33.3 °F 21.9 °F 57% 30.20 in 10.0 mi West 3.5 mph - N/A   Clear
7:53 PM 34.0 °F 31.0 °F 21.9 °F 61% 30.21 in 10.0 mi WSW 3.5 mph - N/A   Clear
8:53 PM 34.0 °F 28.8 °F 21.9 °F 61% 30.22 in 10.0 mi West 5.8 mph - N/A   Clear
9:53 PM 33.1 °F - 21.0 °F 61% 30.21 in 10.0 mi Calm Calm - N/A   Clear
10:53 PM 28.0 °F - 21.9 °F 78% 30.22 in 10.0 mi Calm Calm - N/A   Clear
11:53 PM 28.0 °F - 21.9 °F 78% 30.23 in 10.0 mi Calm Calm - N/A   Clear